Wind_Speed
8 7 10 13 12 9 9 12 14 15 17 17 17 17 17 16 14 14 14 12 11 10 10 7 6 5 5 5 5 6 6 6 6 6 6 7 8 8 9 12 16 19 22 24 25 25 26 27 26 25 25 24 23 22 21 20 21 21 19 17 15 13
5 7 9 12 10 6 7 11 13 15 18 18 18 19 17 15 14 15 14 11 10 8 8 7 6 6 5 5 5 5 5 6 7 7 6 7 8 9 9 10 12 16 19 21 23 24 25 25 26 26 25 25 24 23 22 22 23 23 21 19 17 16
5 7 9 10 7 4 6 9 12 15 18 19 20 19 16 15 14 13 11 10 10 7 6 8 8 6 5 5 4 4 5 6 7 7 7 7 7 8 9 10 10 12 15 18 20 23 23 24 25 25 25 24 24 24 23 23 24 24 21 19 19 19
5 8 9 8 5 4 6 8 10 14 18 20 19 17 15 16 14 12 11 10 8 6 7 9 8 6 4 4 4 4 5 7 8 9 8 8 7 7 8 10 11 11 12 15 18 20 23 24 24 24 24 25 24 24 23 24 26 25 21 20 21 21
5 7 7 7 5 4 6 7 9 14 19 20 18 17 16 16 13 11 11 9 6 5 8 9 7 5 3 4 5 5 6 7 8 9 9 8 7 6 8 9 11 12 13 14 16 19 21 23 23 23 24 24 24 23 23 25 27 26 22 22 23 23
6 6 6 6 4 5 7 7 9 14 18 19 19 18 16 14 11 9 8 7 6 6 8 8 7 5 3 5 6 7 8 8 8 8 8 7 6 6 8 8 9 11 13 14 16 18 20 21 21 22 23 23 23 23 23 25 27 25 23 23 24 23
7 7 7 6 5 7 8 9 11 13 17 19 18 15 12 10 8 7 5 5 7 5 6 7 6 6 4 5 8 9 9 10 10 9 9 7 6 7 7 7 7 9 12 14 15 17 19 19 19 20 22 22 22 22 23 24 26 24 23 23 24 23
7 7 6 5 6 9 9 10 11 12 15 15 11 9 7 6 5 5 4 3 4 3 3 5 7 7 6 7 9 10 9 10 10 9 8 7 7 8 8 7 6 7 10 13 15 16 17 19 19 20 20 22 22 22 22 24 25 24 22 23 24 23
6 5 4 5 7 8 9 10 10 12 11 6 6 8 5 4 3 3 3 3 3 4 4 5 7 8 8 9 10 9 8 9 8 7 8 8 7 7 8 8 7 7 8 12 15 15 16 18 20 20 20 21 21 22 23 23 25 24 22 22 23 23
5 5 5 6 6 6 9 10 10 11 7 6 8 8 6 5 4 3 4 5 6 7 7 8 9 9 10 11 9 9 9 10 9 8 9 8 7 7 8 9 10 9 9 10 12 14 15 16 18 20 19 19 20 22 22 19 20 21 20 21 22 22
7 7 7 8 7 7 9 10 11 9 7 8 9 8 6 4 3 4 6 6 7 9 10 10 10 10 10 10 8 7 7 8 8 8 8 8 7 8 9 10 11 10 9 9 10 12 14 15 16 18 18 19 19 19 20 19 19 19 18 20 20 20
7 8 9 10 9 9 9 9 10 9 10 9 7 7 4 3 3 5 7 7 8 10 10 10 10 8 8 7 7 6 5 6 6 6 7 8 8 9 9 10 10 10 9 10 10 11 13 14 14 16 16 17 17 18 22 23 20 16 14 16 18 17
7 9 11 11 11 11 11 8 7 6 9 8 7 6 4 3 3 5 7 9 9 10 9 9 9 8 7 6 4 5 4 4 5 5 6 8 9 9 9 10 10 11 10 10 10 10 13 14 15 15 14 15 15 17 20 18 12 8 8 12 15 15
7 9 11 13 13 12 11 8 5 5 6 6 7 6 5 3 3 5 7 8 8 9 8 8 7 6 7 4 2 4 4 4 4 4 6 9 10 9 9 10 10 11 10 10 10 10 12 13 14 15 15 15 14 13 15 12 8 7 7 10 11 12
7 8 9 11 12 13 12 9 6 6 6 6 8 8 6 4 4 4 5 6 6 7 7 7 6 5 6 3 2 5 5 3 4 4 6 8 9 9 9 9 11 11 10 9 9 10 11 11 12 15 17 17 13 11 13 11 7 7 8 9 9 10
9 9 9 9 10 12 11 8 6 7 8 8 9 9 8 7 6 4 2 1 1 3 5 5 6 6 6 1 1 3 3 3 5 5 6 8 8 9 8 9 11 12 11 10 9 10 11 11 13 14 13 14 12 11 12 9 6 9 9 9 9 9
11 12 11 9 8 9 9 7 7 8 9 10 10 10 10 9 9 8 7 7 5 3 1 1 3 5 4 1 2 3 3 3 5 5 6 7 8 8 7 8 10 12 13 11 10 12 12 12 14 14 11 11 11 10 11 9 8 9 9 9 8 8
12 14 14 12 10 10 9 9 10 9 10 12 11 10 10 11 11 10 10 9 8 7 5 3 1 1 2 2 3 3 2 1 3 4 5 6 7 7 7 8 9 11 12 10 11 13 12 13 15 16 10 9 10 11 11 10 10 9 9 9 9 8
13 14 14 13 12 12 13 12 11 11 11 12 12 10 10 10 9 9 10 10 10 9 7 5 3 4 3 3 2 3 2 1 2 4 5 6 7 7 7 8 9 10 9 8 10 11 11 13 15 15 9 8 9 11 11 11 11 11 11 11 10 9
14 15 14 12 12 14 16 14 12 12 12 12 11 10 10 10 10 10 10 11 12 12 10 8 6 6 5 3 2 2 2 1 2 4 4 5 7 8 8 9 10 10 9 9 9 9 10 11 11 13 8 8 8 11 10 10 11 12 12 11 10 10
15 16 15 13 13 14 15 14 14 14 12 12 12 12 12 11 11 10 10 11 12 12 12 10 8 6 6 4 2 1 2 1 1 2 3 5 7 9 10 11 11 12 11 10 10 9 9 9 10 10 6 8 9 10 10 10 11 12 12 12 12 11
16 17 17 17 16 15 15 16 15 14 13 13 13 12 11 10 10 10 10 10 10 11 12 11 10 8 8 6 4 2 0 1 1 1 3 6 7 8 9 11 11 12 12 11 10 10 8 8 9 9 5 6 8 10 10 10 11 11 12 12 11 9
16 19 19 19 18 17 18 18 16 14 13 12 10 9 9 8 7 7 8 8 9 10 11 11 10 9 9 8 6 4 2 1 2 2 4 5 6 6 8 9 10 11 12 12 10 10 9 8 9 9 6 5 7 9 9 9 10 10 10 9 8 8
17 18 18 19 19 19 17 17 17 15 12 10 8 7 6 5 5 5 6 6 7 8 10 10 10 9 9 8 6 3 2 2 2 3 5 7 7 7 7 8 10 10 12 12 10 10 10 9 9 9 8 6 6 7 7 9 9 9 8 7 7 8
18 18 19 20 19 18 15 13 15 13 9 9 7 6 4 3 4 4 4 5 6 8 9 9 9 9 8 8 7 5 2 1 2 3 5 7 8 8 8 7 8 9 10 10 9 9 9 8 8 9 9 7 6 6 5 7 8 8 8 8 9 8
19 19 20 22 20 17 13 9 12 10 7 7 4 3 2 2 3 3 4 5 6 7 8 8 8 8 8 8 8 7 4 2 2 3 4 5 7 8 7 6 7 8 8 8 8 8 8 9 9 8 8 8 7 7 5 5 7 8 9 10 10 8
19 20 21 22 20 16 13 11 12 9 6 5 3 1 1 2 3 4 4 5 6 7 9 9 9 8 8 8 7 7 6 4 3 3 3 5 7 8 7 6 7 8 8 9 9 9 9 10 10 9 8 9 9 8 7 6 6 8 9 10 10 8
16 19 21 21 19 16 15 14 13 12 8 5 2 1 2 3 3 4 4 5 6 8 10 10 10 9 9 9 8 7 6 5 4 3 2 5 7 8 8 8 9 10 11 10 10 10 9 9 9 9 9 10 10 8 8 9 8 9 9 10 10 8
13 16 18 18 17 17 17 14 13 13 8 3 2 2 3 4 4 5 5 6 7 9 10 11 11 10 8 8 8 8 7 6 5 4 2 6 6 6 9 10 11 13 13 12 11 11 10 9 8 7 8 10 11 9 9 10 11 11 10 10 10 9
11 12 14 16 16 17 17 13 10 9 7 4 4 4 5 6 6 7 8 8 9 10 10 11 13 12 9 8 8 8 7 6 6 5 2 6 6 6 8 9 11 12 12 12 12 10 10 11 10 8 8 10 10 9 9 11 13 12 10 9 9 8
7 9 12 15 17 19 17 14 10 8 7 7 6 6 7 8 9 9 10 12 12 12 12 12 15 13 9 7 8 8 7 6 5 5 3 5 7 6 6 7 9 10 11 12 12 10 11 13 12 9 9 10 8 8 9 10 11 11 10 9 9 8
7 7 10 13 19 23 20 15 12 8 7 8 7 8 8 9 10 12 13 15 15 16 15 14 14 12 7 6 8 8 8 6 5 4 3 5 6 6 6 7 8 9 9 9 10 10 11 11 10 8 8 9 8 9 10 9 9 11 11 10 8 7
9 9 10 12 18 22 19 17 16 10 8 9 8 9 9 10 12 14 16 18 19 18 17 16 13 8 5 5 7 8 8 6 5 4 2 4 6 6 7 7 6 7 7 8 10 11 11 10 9 9 9 8 7 8 8 9 8 9 11 10 7 5
11 10 11 13 15 17 16 17 16 12 9 10 11 10 10 11 13 15 17 19 21 21 19 15 11 6 4 5 6 8 8 6 5 4 2 4 5 6 7 6 6 5 6 9 10 10 11 10 9 10 9 9 8 7 7 9 9 9 8 8 7 4
12 10 10 11 13 14 14 15 15 13 11 12 13 13 12 12 13 15 18 20 21 21 16 11 7 5 4 4 5 6 7 6 5 4 3 4 4 4 5 6 5 5 6 8 9 10 10 9 9 10 10 10 10 9 9 9 10 10 8 9 10 7
12 11 10 9 10 12 13 14 15 15 13 12 15 15 14 13 14 16 17 19 19 16 11 8 6 5 4 4 5 5 5 5 5 4 3 3 3 3 4 6 5 5 5 6 7 9 9 8 9 10 10 11 10 9 8 8 9 10 10 12 13 9
13 13 11 9 10 12 13 14 15 17 15 13 15 16 15 14 15 15 15 16 14 12 9 8 7 5 4 3 4 4 4 4 4 4 3 3 3 3 4 5 5 5 6 6 6 7 8 8 9 10 10 9 9 9 9 9 8 8 8 11 14 13
Wind_Direction
252 242 236 240 240 234 242 247 238 221 207 201 198 192 189 187 183 185 190 186 189 185 169 164 165 165 177 186 188 190 197 203 212 221 222 223 224 225 221 219 220 220 219 217 216 216 216 218 219 221 221 223 225 227 229 230 232 230 228 231 230 230
233 223 227 241 239 228 233 233 231 218 205 200 195 190 185 183 186 194 195 191 204 192 156 164 174 171 181 187 191 192 195 203 213 220 220 221 223 226 227 222 219 219 219 218 217 217 218 219 221 223 224 225 227 229 231 232 235 233 230 233 233 234
227 236 233 243 241 214 214 219 223 214 203 198 193 189 185 189 197 202 205 206 215 203 167 186 193 184 188 196 199 195 201 207 212 218 216 214 216 222 228 229 225 221 219 219 218 218 218 220 222 224 227 227 229 231 233 235 238 237 236 237 238 239
220 228 229 235 230 194 206 211 216 210 199 195 194 193 193 204 210 212 223 223 223 213 183 185 190 189 201 223 228 224 220 217 216 219 217 214 214 217 225 229 229 224 219 218 217 217 218 220 222 225 227 229 230 233 235 237 239 240 240 240 240 242
203 212 225 226 211 198 212 206 201 200 197 198 199 202 208 215 216 221 235 234 225 213 193 184 180 183 220 251 255 261 253 247 242 238 233 230 228 229 230 229 227 222 215 214 215 215 217 219 222 224 227 230 233 235 237 239 240 240 240 240 241 242
228 222 220 211 197 200 208 198 193 195 199 204 204 201 208 212 206 216 241 248 234 223 208 191 173 176 226 262 264 267 267 266 264 265 261 252 252 247 242 238 230 222 211 207 209 210 214 217 220 225 227 229 232 235 238 241 243 242 241 240 241 242
242 216 198 195 182 182 182 179 185 194 201 204 199 189 192 199 197 211 234 252 249 238 216 199 190 191 210 251 257 256 257 258 254 259 260 247 243 235 238 247 241 229 215 207 207 205 208 212 219 226 229 229 231 234 237 241 242 241 242 242 243 244
225 199 190 179 158 163 164 171 181 194 202 199 185 168 175 193 197 212 210 223 250 257 229 212 212 212 214 234 244 243 247 254 247 244 243 229 223 214 216 230 226 222 217 211 206 202 204 207 213 222 227 228 228 231 235 238 241 241 243 245 245 245
213 202 179 141 141 158 165 171 183 197 202 182 152 147 147 168 179 191 180 182 218 237 231 214 214 222 230 231 233 234 232 244 244 235 231 218 210 207 208 212 205 208 215 217 212 204 204 205 211 218 224 226 226 229 230 234 242 242 242 245 243 243
198 192 168 151 157 170 169 168 182 195 180 128 136 145 137 141 154 165 179 196 212 224 226 222 225 231 232 227 228 234 230 234 240 236 229 215 208 209 207 204 207 214 217 226 226 214 207 205 209 216 222 227 227 229 230 230 236 234 235 242 244 244
177 168 164 173 178 179 173 167 179 178 134 124 133 126 124 131 149 172 185 211 225 232 237 236 235 232 230 226 222 232 233 231 234 233 229 222 217 215 211 208 212 219 218 225 231 221 214 206 205 213 220 225 226 230 234 231 229 228 229 236 243 245
174 160 160 175 174 170 176 174 181 162 121 122 120 108 128 146 183 198 207 231 238 240 244 244 240 236 239 235 223 229 237 235 234 229 226 225 220 214 213 213 215 216 215 223 227 222 218 205 197 205 215 222 222 226 235 234 230 233 234 237 243 248
177 165 161 167 167 164 172 179 186 152 114 112 109 111 144 160 200 215 226 238 238 238 242 247 248 249 253 249 232 233 236 237 241 231 221 219 216 212 211 214 214 210 213 225 226 221 219 207 194 194 206 220 216 218 234 237 227 223 225 230 237 246
183 173 163 161 163 163 166 171 165 132 106 103 108 117 134 150 197 212 228 236 234 237 239 245 252 257 261 261 264 256 248 236 241 235 217 210 209 211 210 208 205 202 211 220 221 222 222 216 203 192 198 213 210 209 229 235 214 196 204 216 227 239
185 178 170 164 162 160 160 161 143 119 109 103 107 114 124 142 172 197 221 235 240 240 239 242 245 254 260 271 346 285 267 237 225 218 210 209 210 214 210 205 203 205 210 212 218 224 223 223 211 199 200 203 197 200 220 227 203 192 209 217 220 227
182 183 180 173 163 155 151 150 141 124 115 108 108 114 121 130 132 131 137 152 240 237 234 239 235 243 255 272 30 269 245 202 201 196 207 210 208 212 209 209 211 213 215 212 217 218 220 227 218 215 211 194 184 196 218 231 210 192 201 211 213 219
181 178 173 171 165 156 142 138 146 135 124 121 120 118 115 114 104 87 79 73 63 64 73 241 232 234 244 122 108 209 210 188 195 190 204 203 198 203 205 211 215 219 216 208 211 211 218 229 225 232 227 190 185 197 209 225 223 207 202 211 218 223
179 172 169 167 166 163 147 144 150 142 136 132 126 118 112 113 107 90 77 71 66 63 65 54 350 188 156 113 129 200 217 170 185 187 197 196 196 202 203 208 211 219 215 205 210 208 215 233 235 238 226 188 195 200 204 219 225 229 225 220 226 232
179 176 176 168 164 165 157 154 149 140 140 133 125 120 113 111 104 84 67 61 58 59 63 60 44 62 88 115 150 221 228 149 167 183 194 197 199 201 206 213 211 218 216 204 207 203 213 234 242 241 217 173 195 204 206 219 226 239 242 231 230 236
179 180 181 170 166 168 163 156 146 145 146 135 123 111 96 85 74 62 51 48 47 49 53 57 55 53 62 98 162 238 252 216 187 187 202 209 208 206 211 216 214 217 215 203 203 204 214 228 239 241 206 150 189 213 208 213 221 231 240 241 236 231
180 179 181 175 170 171 165 160 159 157 144 123 108 93 80 71 64 57 49 45 43 43 46 51 53 48 47 61 105 236 267 246 190 201 228 228 221 217 215 216 214 214 213 206 208 211 215 225 232 234 203 149 181 217 212 209 221 228 235 240 236 225
182 179 179 177 175 175 170 167 163 148 128 114 101 89 79 68 60 56 53 49 45 41 42 45 46 45 43 49 76 107 325 276 222 223 238 233 227 223 220 219 217 216 214 209 214 220 219 227 236 240 228 167 175 207 215 213 220 229 238 241 242 241
186 182 180 179 180 178 173 167 155 138 129 120 104 92 80 68 58 53 52 47 44 40 38 41 41 40 39 41 61 89 105 198 225 226 230 229 225 224 222 221 218 219 222 218 217 226 227 222 230 240 239 207 186 199 216 223 219 222 238 249 255 259
186 182 181 184 183 176 179 173 152 139 135 127 113 101 88 76 64 49 46 42 41 39 35 36 34 32 31 29 37 62 120 159 189 203 217 221 222 224 222 222 222 219 226 228 220 226 235 225 224 233 233 222 204 199 215 227 224 220 230 239 242 247
180 179 182 185 183 176 189 181 141 130 135 130 119 109 97 75 58 40 39 33 31 33 28 26 24 21 19 17 18 20 24 204 209 196 207 218 226 232 229 226 229 225 226 232 225 226 237 231 223 230 232 225 211 216 226 221 223 223 217 220 225 225
175 181 184 182 180 177 194 180 127 128 149 137 131 131 112 37 37 24 24 20 17 21 17 15 12 8 7 5 5 5 2 332 263 233 219 222 233 245 242 235 243 246 242 241 236 225 222 223 224 229 236 234 223 232 236 212 220 220 207 208 212 207
174 183 186 184 184 179 191 184 142 149 177 165 171 186 347 351 1 3 14 12 7 8 5 4 360 357 356 351 352 355 354 351 319 267 236 218 225 240 244 238 241 248 247 247 245 232 218 219 226 230 239 241 230 232 236 222 217 216 210 209 207 208
176 186 189 193 194 182 190 196 168 163 182 195 207 298 325 323 333 347 3 1 359 359 357 356 351 347 346 341 341 345 346 345 331 303 239 200 209 224 231 230 227 231 235 236 241 241 231 227 233 237 242 241 229 224 233 232 222 217 217 214 215 222
187 191 195 203 202 193 198 202 180 163 164 187 240 290 295 299 311 326 338 339 343 347 347 348 344 338 333 334 332 332 338 335 331 333 226 192 193 212 222 225 225 229 232 231 236 242 241 239 240 240 244 243 233 225 227 228 224 221 217 214 219 225
206 206 208 209 207 205 203 197 186 165 155 193 243 265 276 288 302 315 322 322 325 331 334 338 339 333 320 322 325 322 328 326 330 339 259 201 193 205 219 227 231 234 232 231 234 239 243 241 236 233 237 240 237 229 222 220 219 218 212 206 206 206
228 218 215 214 212 211 204 194 196 186 175 205 238 257 272 290 304 312 315 315 315 320 327 331 335 332 313 310 321 316 320 323 325 330 293 225 211 216 225 228 232 237 232 228 228 234 241 239 235 232 230 234 229 210 209 212 211 205 193 187 188 191
237 227 222 219 211 210 204 191 192 198 199 213 236 259 276 292 301 308 312 312 313 317 324 325 328 329 312 309 321 317 319 322 316 319 294 243 226 220 222 223 227 236 233 222 219 224 228 227 225 216 210 217 201 180 187 195 193 187 179 178 182 190
218 221 220 216 207 209 208 196 196 207 215 224 244 260 273 290 300 309 313 310 311 315 319 318 318 320 313 321 328 323 323 320 310 316 285 234 223 212 214 216 218 229 227 216 212 214 214 212 206 195 193 200 184 161 160 166 170 172 172 173 173 188
191 194 202 208 211 216 216 208 209 214 218 231 246 255 269 287 299 308 310 309 310 314 316 314 308 304 311 326 334 327 322 317 308 302 261 225 221 213 208 203 205 217 216 210 206 204 204 201 196 192 190 193 186 167 157 158 152 146 159 161 150 164
182 186 197 211 221 223 219 217 216 211 218 237 248 256 267 280 294 303 306 307 310 313 314 310 299 297 311 324 330 327 319 314 306 290 258 234 229 215 199 194 199 210 210 210 206 205 207 202 194 194 189 188 189 185 182 180 165 151 143 132 142 177
189 196 206 216 224 225 225 227 223 217 225 243 253 260 265 274 290 298 303 306 309 311 309 304 299 293 302 315 320 320 315 310 300 287 274 251 231 204 194 194 199 209 214 212 205 203 206 201 197 196 190 187 189 187 189 193 185 172 157 147 160 178
201 205 208 212 222 230 235 237 233 228 232 246 259 267 271 279 290 296 302 306 307 306 301 298 296 288 287 299 307 309 306 302 293 285 280 264 244 215 202 201 198 202 206 204 198 193 190 189 191 188 183 181 181 180 178 176 178 178 169 167 172 154
Height
3136 3137 3136 3134 3134 3138 3140 3139 3139 3139 3140 3141 3142 3143 3144 3146 3147 3147 3147 3147 3148 3149 3152 3155 3157 3157 3158 3158 3159 3159 3159 3159 3159 3160 3160 3161 3161 3161 3161 3161 3162 3163 3164 3166 3167 3169 3170 3171 3172 3173 3174 3174 3175 3175 3175 3176 3176 3178 3180 3180 3181 3182
3136 3136 3134 3133 3135 3138 3139 3138 3137 3138 3139 3140 3141 3142 3143 3145 3146 3145 3145 3147 3149 3151 3154 3156 3156 3156 3157 3158 3158 3159 3159 3159 3159 3159 3160 3160 3160 3160 3160 3161 3161 3162 3163 3164 3166 3167 3169 3170 3171 3172 3172 3173 3174 3174 3174 3175 3175 3177 3179 3180 3181 3181
3135 3134 3134 3133 3136 3139 3138 3137 3137 3137 3139 3140 3140 3141 3144 3145 3144 3145 3146 3148 3151 3154 3155 3155 3155 3156 3157 3158 3158 3158 3158 3158 3158 3158 3158 3159 3159 3159 3160 3160 3161 3161 3163 3164 3165 3167 3168 3169 3170 3171 3171 3172 3173 3172 3173 3174 3174 3176 3178 3179 3180 3180
3134 3134 3133 3133 3136 3138 3137 3136 3136 3137 3138 3139 3140 3142 3143 3143 3144 3146 3147 3150 3152 3154 3154 3154 3154 3156 3157 3157 3158 3158 3158 3157 3157 3157 3157 3158 3158 3159 3159 3160 3160 3161 3162 3163 3164 3165 3167 3168 3169 3170 3170 3171 3171 3171 3172 3173 3173 3175 3177 3178 3179 3179
3132 3132 3132 3133 3135 3136 3136 3136 3136 3136 3137 3138 3139 3140 3141 3143 3145 3147 3148 3150 3152 3152 3153 3153 3154 3156 3156 3157 3157 3157 3157 3157 3157 3157 3158 3159 3159 3160 3160 3159 3160 3160 3161 3162 3163 3164 3165 3166 3168 3169 3169 3170 3170 3171 3171 3171 3172 3175 3177 3177 3177 3177
3130 3131 3132 3133 3134 3135 3135 3135 3135 3135 3136 3136 3137 3138 3140 3143 3146 3148 3149 3151 3151 3151 3151 3152 3153 3154 3155 3156 3156 3156 3156 3156 3157 3157 3159 3160 3160 3160 3159 3159 3159 3159 3160 3161 3161 3162 3163 3164 3166 3167 3168 3169 3169 3170 3170 3170 3171 3174 3174 3175 3175 3176
3129 3130 3132 3134 3135 3134 3134 3134 3134 3134 3133 3134 3136 3138 3141 3144 3146 3148 3150 3150 3150 3150 3151 3152 3152 3153 3153 3154 3154 3154 3154 3155 3155 3156 3157 3159 3159 3159 3158 3159 3159 3159 3159 3159 3160 3161 3161 3163 3164 3165 3166 3167 3168 3168 3168 3168 3170 3172 3172 3173 3174 3175
3128 3130 3132 3133 3134 3133 3134 3133 3133 3133 3132 3135 3140 3142 3144 3145 3147 3148 3150 3149 3149 3149 3150 3151 3151 3151 3151 3152 3152 3153 3153 3153 3153 3154 3156 3157 3157 3157 3156 3157 3158 3158 3158 3158 3159 3159 3160 3161 3163 3163 3165 3166 3167 3167 3167 3167 3168 3170 3172 3172 3173 3173
3128 3129 3130 3131 3131 3132 3133 3133 3133 3133 3135 3140 3143 3145 3146 3147 3147 3147 3148 3148 3147 3148 3149 3149 3149 3149 3150 3150 3151 3151 3152 3152 3152 3154 3155 3156 3156 3155 3155 3155 3156 3156 3157 3157 3158 3158 3159 3160 3161 3162 3163 3164 3165 3164 3162 3164 3167 3169 3171 3171 3172 3172
3130 3130 3130 3131 3131 3131 3133 3134 3133 3134 3139 3143 3144 3146 3147 3147 3147 3147 3147 3147 3147 3147 3148 3148 3148 3148 3149 3149 3150 3150 3151 3151 3152 3153 3154 3154 3154 3154 3153 3154 3154 3155 3156 3157 3158 3158 3158 3158 3159 3161 3161 3162 3163 3160 3159 3163 3166 3167 3169 3169 3170 3171
3130 3131 3132 3132 3132 3132 3133 3135 3134 3136 3141 3143 3143 3145 3145 3146 3146 3146 3146 3146 3146 3146 3147 3147 3147 3148 3148 3149 3150 3150 3150 3151 3151 3152 3153 3153 3153 3152 3153 3153 3154 3155 3156 3157 3157 3158 3157 3157 3158 3160 3161 3161 3161 3160 3158 3161 3163 3165 3168 3169 3170 3170
3130 3131 3132 3132 3132 3133 3133 3134 3135 3139 3141 3141 3143 3144 3144 3145 3145 3145 3145 3145 3145 3145 3146 3146 3146 3147 3148 3149 3150 3150 3150 3151 3151 3151 3151 3152 3151 3151 3152 3153 3153 3154 3155 3156 3156 3157 3157 3157 3158 3159 3159 3159 3160 3161 3157 3156 3161 3167 3170 3170 3169 3169
3129 3130 3131 3132 3133 3133 3133 3133 3134 3138 3140 3140 3142 3143 3143 3143 3144 3144 3144 3145 3145 3145 3145 3146 3146 3146 3146 3148 3150 3150 3150 3150 3150 3150 3150 3150 3150 3150 3151 3152 3153 3154 3155 3155 3155 3156 3157 3157 3157 3157 3158 3157 3157 3158 3157 3157 3163 3168 3169 3168 3168 3168
3128 3128 3130 3132 3133 3134 3134 3134 3134 3136 3138 3139 3140 3141 3141 3142 3142 3143 3143 3144 3144 3145 3145 3145 3145 3145 3145 3148 3150 3148 3148 3148 3149 3149 3149 3149 3149 3149 3150 3151 3153 3154 3154 3155 3155 3156 3157 3157 3157 3157 3156 3155 3155 3157 3156 3158 3163 3166 3166 3166 3166 3167
3126 3127 3128 3131 3133 3135 3135 3135 3135 3136 3138 3139 3140 3141 3141 3141 3141 3142 3143 3143 3144 3144 3144 3144 3144 3144 3144 3146 3148 3146 3147 3147 3148 3148 3148 3148 3148 3149 3150 3151 3152 3153 3154 3154 3155 3156 3157 3158 3158 3158 3156 3154 3156 3158 3156 3157 3161 3164 3164 3164 3165 3165
3126 3127 3128 3130 3133 3135 3135 3136 3136 3137 3138 3139 3141 3141 3141 3141 3142 3142 3143 3143 3143 3143 3143 3143 3143 3143 3144 3146 3147 3146 3146 3147 3147 3147 3147 3148 3148 3149 3150 3151 3151 3152 3153 3154 3154 3156 3157 3158 3158 3157 3157 3157 3158 3159 3157 3157 3160 3163 3163 3163 3163 3163
3125 3127 3129 3130 3132 3133 3134 3135 3136 3138 3139 3140 3140 3141 3142 3142 3142 3143 3143 3143 3143 3143 3142 3142 3143 3143 3143 3146 3147 3145 3145 3146 3146 3146 3147 3147 3148 3148 3149 3150 3151 3151 3152 3154 3154 3155 3157 3157 3158 3158 3159 3161 3161 3161 3159 3159 3160 3162 3163 3163 3163 3163
3125 3128 3130 3131 3132 3133 3133 3134 3136 3138 3140 3140 3140 3141 3142 3142 3143 3144 3144 3144 3143 3143 3142 3142 3142 3142 3143 3145 3146 3144 3144 3145 3145 3146 3146 3147 3147 3148 3149 3150 3150 3151 3152 3153 3154 3154 3156 3157 3158 3160 3161 3162 3162 3161 3160 3160 3160 3161 3162 3163 3163 3164
3125 3128 3130 3131 3133 3134 3134 3134 3136 3138 3140 3140 3141 3141 3142 3143 3143 3144 3144 3143 3143 3142 3142 3142 3142 3142 3142 3144 3144 3143 3144 3145 3145 3146 3146 3146 3146 3147 3147 3149 3150 3150 3151 3152 3153 3154 3155 3156 3158 3159 3161 3162 3162 3161 3160 3161 3161 3161 3160 3161 3163 3163
3124 3126 3129 3131 3132 3134 3134 3135 3137 3139 3140 3141 3141 3141 3141 3142 3142 3143 3143 3143 3143 3143 3142 3142 3142 3142 3142 3143 3144 3143 3143 3144 3145 3145 3146 3146 3146 3146 3147 3148 3149 3149 3150 3151 3152 3153 3154 3155 3157 3158 3160 3162 3161 3159 3160 3160 3160 3160 3159 3160 3162 3163
3124 3126 3128 3130 3132 3133 3134 3136 3138 3139 3140 3140 3140 3140 3141 3141 3142 3143 3144 3144 3143 3143 3143 3143 3142 3142 3142 3143 3143 3143 3143 3144 3145 3145 3145 3145 3145 3146 3147 3147 3148 3149 3149 3150 3151 3152 3153 3154 3155 3156 3158 3161 3160 3158 3159 3159 3159 3159 3158 3158 3159 3161
3123 3125 3128 3130 3132 3134 3135 3137 3138 3138 3138 3139 3140 3141 3142 3143 3144 3144 3145 3145 3145 3145 3144 3144 3143 3142 3142 3143 3143 3143 3143 3143 3144 3144 3144 3144 3144 3145 3146 3147 3147 3148 3148 3149 3150 3151 3152 3153 3153 3154 3155 3158 3159 3157 3157 3158 3159 3158 3157 3157 3157 3159
3122 3125 3128 3130 3132 3133 3134 3136 3136 3137 3138 3139 3141 3142 3143 3144 3145 3145 3146 3146 3146 3146 3145 3144 3144 3143 3142 3142 3143 3143 3142 3143 3143 3144 3143 3143 3143 3144 3145 3146 3147 3147 3147 3149 3150 3150 3151 3152 3152 3152 3153 3155 3157 3157 3156 3157 3158 3158 3157 3159 3159 3159
3121 3125 3127 3129 3131 3132 3134 3134 3134 3136 3139 3141 3142 3143 3144 3145 3145 3146 3146 3146 3146 3146 3145 3145 3144 3143 3142 3142 3142 3141 3141 3142 3142 3142 3143 3143 3143 3143 3144 3145 3146 3146 3147 3148 3149 3149 3150 3151 3151 3151 3153 3154 3155 3156 3156 3156 3157 3158 3158 3159 3159 3158
3122 3124 3126 3128 3130 3132 3134 3134 3133 3137 3140 3142 3143 3144 3145 3145 3145 3145 3146 3146 3146 3146 3145 3145 3144 3143 3142 3141 3141 3140 3140 3140 3140 3140 3141 3141 3141 3142 3142 3143 3144 3145 3145 3146 3148 3148 3149 3149 3150 3151 3152 3153 3154 3155 3156 3156 3157 3157 3158 3159 3158 3158
3123 3124 3126 3128 3131 3133 3136 3137 3137 3139 3142 3143 3144 3145 3145 3146 3145 3145 3145 3145 3145 3145 3145 3145 3144 3143 3142 3141 3140 3139 3139 3138 3138 3138 3139 3139 3139 3139 3140 3141 3142 3143 3144 3144 3146 3148 3148 3148 3149 3150 3151 3152 3153 3154 3155 3156 3156 3157 3157 3158 3158 3158
3124 3125 3126 3128 3130 3133 3136 3138 3139 3141 3143 3144 3145 3145 3145 3145 3145 3144 3144 3144 3144 3144 3144 3144 3143 3142 3142 3140 3139 3138 3137 3137 3137 3137 3137 3138 3137 3137 3139 3140 3141 3141 3142 3142 3144 3146 3147 3148 3148 3149 3150 3151 3151 3152 3153 3155 3155 3156 3156 3157 3158 3158
3124 3125 3126 3127 3129 3132 3134 3135 3137 3138 3141 3144 3144 3144 3144 3144 3144 3144 3143 3143 3143 3142 3143 3142 3142 3142 3141 3140 3139 3138 3137 3136 3136 3135 3136 3137 3137 3137 3138 3139 3140 3140 3141 3142 3143 3144 3145 3147 3147 3148 3148 3149 3150 3151 3152 3153 3154 3154 3155 3157 3157 3158
3123 3124 3125 3127 3128 3130 3131 3134 3137 3136 3137 3142 3143 3143 3143 3142 3142 3143 3142 3142 3142 3141 3141 3141 3141 3141 3140 3139 3138 3137 3136 3135 3135 3134 3135 3136 3136 3137 3138 3138 3139 3140 3140 3141 3142 3142 3143 3145 3146 3146 3146 3147 3148 3150 3151 3151 3152 3152 3154 3155 3156 3157
3122 3123 3125 3127 3128 3129 3130 3134 3138 3136 3137 3140 3142 3141 3141 3141 3141 3141 3141 3141 3141 3140 3140 3140 3139 3139 3138 3137 3136 3135 3135 3134 3134 3133 3134 3135 3135 3136 3137 3137 3138 3139 3140 3140 3141 3141 3142 3143 3145 3146 3146 3146 3147 3149 3150 3150 3151 3152 3153 3154 3155 3155
3121 3122 3124 3126 3127 3128 3129 3131 3134 3136 3137 3138 3139 3140 3140 3139 3139 3140 3140 3139 3139 3139 3139 3139 3138 3137 3137 3136 3135 3134 3133 3133 3132 3132 3133 3133 3134 3135 3136 3136 3137 3138 3138 3139 3140 3140 3140 3141 3143 3145 3145 3145 3146 3149 3149 3149 3150 3152 3152 3153 3154 3154
3119 3120 3121 3123 3124 3125 3127 3129 3132 3134 3135 3136 3137 3138 3138 3138 3138 3138 3138 3138 3137 3137 3138 3138 3137 3136 3136 3135 3134 3133 3132 3131 3131 3132 3132 3132 3133 3134 3135 3136 3136 3137 3137 3138 3139 3140 3139 3140 3142 3143 3144 3144 3146 3148 3148 3148 3149 3151 3151 3152 3153 3153
3116 3117 3118 3120 3121 3123 3125 3127 3129 3132 3133 3134 3136 3137 3137 3137 3137 3137 3137 3136 3136 3136 3136 3137 3136 3135 3135 3134 3133 3132 3131 3130 3130 3131 3131 3132 3132 3133 3134 3135 3136 3136 3137 3138 3138 3139 3139 3140 3142 3143 3144 3144 3145 3146 3148 3148 3149 3150 3151 3151 3151 3152
3114 3116 3117 3118 3120 3122 3124 3125 3127 3129 3131 3132 3134 3134 3135 3135 3136 3136 3135 3134 3134 3134 3135 3135 3135 3134 3133 3132 3132 3131 3130 3130 3130 3130 3130 3131 3132 3132 3134 3135 3136 3136 3137 3138 3138 3139 3140 3141 3141 3142 3144 3144 3144 3145 3147 3148 3149 3150 3150 3151 3151 3152
3114 3115 3117 3118 3120 3122 3123 3125 3126 3128 3129 3130 3131 3132 3133 3134 3134 3134 3133 3133 3132 3132 3133 3133 3133 3133 3132 3131 3131 3130 3129 3129 3129 3129 3129 3130 3131 3132 3133 3134 3135 3136 3136 3137 3138 3139 3140 3140 3141 3142 3143 3144 3144 3145 3146 3147 3148 3149 3150 3151 3151 3152
3113 3114 3116 3118 3119 3121 3122 3124 3125 3126 3128 3129 3129 3130 3131 3132 3132 3132 3132 3131 3131 3131 3132 3132 3132 3131 3131 3130 3129 3129 3129 3128 3129 3129 3129 3129 3130 3132 3133 3134 3135 3136 3136 3137 3138 3139 3139 3140 3141 3141 3143 3144 3144 3145 3146 3146 3147 3148 3149 3150 3151 3152
3111 3112 3114 3116 3118 3119 3120 3122 3123 3124 3126 3128 3128 3129 3130 3131 3131 3130 3130 3129 3130 3130 3131 3131 3131 3130 3129 3129 3128 3128 3128 3128 3128 3128 3129 3129 3130 3132 3133 3134 3135 3136 3136 3137 3138 3139 3139 3140 3140 3141 3142 3144 3144 3146 3146 3147 3147 3148 3149 3150 3151 3152